Home > Weather > Setúbal > Past weeks

Flag for Portugal Past Weather in Setúbal, Portugal — Yesterday and Last 2 Weeks

Now
72 °F

Sunny.


Feels Like: 76 °F
Forecast: 66 / 86 °F
Wind: 16 mph from Northwest

Location: Lisbon Portela Airport

Current Time: Jun 26, 2016 at 10:02:47 PM

Latest Report: Jun 26, 2016 at 9:30 PM


Visibility: 10 mi

Pressure: 30.01 "Hg

Humidity: 57%

Dew Point: 55 °F

Location of SetúbalLocation

Past Weather in Setúbal — Graph

°F

Setúbal Temperature Yesterday

Maximum temperature yesterday: 75 °F (at 3:00 PM)
Minimum temperature yesterday: 61 °F (at 4:30 AM)
Average temperature yesterday: 66 °F

High & Low Weather Summary for the Past Weeks

 TemperatureHumidityPressure
High90 °F (Jun 20, 2:00 PM)94% (Jun 13, 12:00 AM)30.30 "Hg (Jun 13, 12:00 AM)
Low55 °F (Jun 17, 4:30 AM)21% (Jun 22, 4:00 PM)29.86 "Hg (Jun 15, 4:30 AM)
Average68 °F69%30.07 "Hg
* Reported Jun 11 8:00 PM — Jun 26 8:30 PM, Setúbal, Weather by CustomWeather, © 2016

Note: Actual official high and low records may vary slightly from our data, if they occured in-between our weather recording intervals... More about our weather records

Advertising

Setúbal Weather History for the Previous 24 Hours

Scroll right to see more
 ConditionsComfort  
Time TempWeatherWind HumidityBarometerVisibility
8:30 PM
Sun, Jun 26
73 °FSunny.16 mph53%29.98 "Hg10 mi
8:00 PM75 °FSunny.16 mph50%29.98 "Hg10 mi
7:30 PM77 °FSunny.15 mph47%29.98 "Hg10 mi
7:00 PM79 °FPassing clouds.14 mph48%29.98 "HgN/A
6:30 PM81 °FSunny.13 mph45%29.98 "Hg10 mi
6:00 PM82 °FPassing clouds.12 mph42%29.98 "HgN/A
5:30 PM84 °FPassing clouds.10 mph40%29.98 "HgN/A
5:00 PM84 °FPassing clouds.12 mph40%29.98 "HgN/A
4:30 PM84 °FPassing clouds.10 mph40%29.98 "HgN/A
4:00 PM84 °FPassing clouds.8 mph40%29.98 "HgN/A
3:30 PM84 °FPassing clouds.7 mph40%29.98 "HgN/A
3:00 PM86 °FPassing clouds.9 mph38%29.98 "HgN/A
2:30 PM82 °FPassing clouds.9 mph45%29.98 "HgN/A
2:00 PM81 °FPassing clouds.8 mph48%29.98 "HgN/A
1:30 PM81 °FPassing clouds.7 mph51%29.98 "HgN/A
1:00 PM81 °FPassing clouds.8 mph51%29.98 "HgN/A
12:30 PM79 °FPassing clouds.7 mph54%29.98 "HgN/A
12:00 PM77 °FSunny.6 mph57%29.98 "Hg10 mi
11:30 AM77 °FSunny.7 mph57%29.98 "Hg10 mi
11:00 AM73 °FSunny.6 mph65%29.98 "Hg10 mi
10:30 AM72 °FPassing clouds.7 mph65%29.98 "HgN/A
10:00 AM70 °FPassing clouds.9 mph69%29.98 "HgN/A
9:30 AM68 °FPassing clouds.10 mph73%29.98 "HgN/A
9:00 AM64 °FPassing clouds.13 mph78%29.98 "HgN/A
8:30 AM64 °FPassing clouds.13 mph78%29.98 "HgN/A
8:00 AM63 °FPassing clouds.15 mph83%29.95 "HgN/A
7:30 AM61 °FPassing clouds.18 mph88%29.95 "HgN/A
7:00 AM61 °FPassing clouds.16 mph88%29.95 "HgN/A
6:30 AM61 °FPassing clouds.20 mph88%29.95 "HgN/A
6:00 AM61 °FPassing clouds.18 mph88%29.92 "HgN/A
5:30 AM61 °FPassing clouds.18 mph88%29.92 "HgN/A
5:00 AM61 °FPassing clouds.17 mph88%29.95 "HgN/A
4:30 AM61 °FPassing clouds.18 mph88%29.95 "HgN/A
4:00 AM61 °FPassing clouds.18 mph88%29.95 "HgN/A
3:30 AM61 °FPassing clouds.17 mph88%29.95 "HgN/A
3:00 AM61 °FPassing clouds.17 mph88%29.95 "HgN/A
2:30 AM63 °FPassing clouds.20 mph83%29.95 "HgN/A
2:00 AM61 °FPassing clouds.18 mph88%29.95 "HgN/A
1:30 AM63 °FPassing clouds.17 mph83%29.98 "HgN/A
1:00 AM63 °FPassing clouds.17 mph83%29.98 "HgN/A
12:30 AM63 °FPassing clouds.18 mph83%29.98 "HgN/A
12:00 AM63 °FPassing clouds.16 mph83%29.98 "HgN/A
11:30 PM
Sat, Jun 25
63 °FPassing clouds.16 mph83%29.98 "HgN/A
11:00 PM63 °FPassing clouds.14 mph83%29.98 "HgN/A
10:30 PM63 °FPassing clouds.16 mph83%29.98 "HgN/A
10:00 PM63 °FPassing clouds.16 mph83%29.98 "HgN/A
Weather by CustomWeather, © 2016

See weather overviewHow to use our weather pages